Guyra Real Estate, NSW, 2365 Armidale Regional

Thinking about buying in Guyra? Now could not be a better time, with a whopping 1528 properties either residential or commercial there's certainly plenty to choose from.

The average property price for this area is $418,000 with prices in this suburb ranging from $54,000 to $1,674,000.

Distance to the coast is 126 Km.

Guyra Real Estate Market Outlook

In Guyra there has been a history of lower than average prices and demand, offering opportunities for investors or first home owners, especially in the context of the growth in working from home. Low average incomes in Guyra is reflected in smaller and lower quality accommodation. Over time this may change providsing long-term returns but in the short to medium term, prices are likely to be less than state averages. Low average earnings from people in Guyra leads to lower quality housing which also negatively impacts the provision of facilities. As a consequence this area is often seen as less desirable, with lower quality of housing and slower price growth. Low population density implies low demand and limits housing choices and price increases. Could be a good entry point for first home buyers needing to somehow get into the market. With very low industrial sector presence in Guyra the focus is on lifestyle, driving specific demand around facilities, services, and open space. Most people are employed in service sectors with a higher than average proportion being able to work from home. This may incease demand over the medium term.

About

For Sale

Elders Real Estate 14 LACKEY ST, GUYRA, NSW, 2365 3 1 1 $299,000
Elders Real Estate 25 PRISK ST, GUYRA, NSW, 2365 3 1 1
Elders Real Estate 46 ABERCROMBIE ST, GUYRA, NSW, 2365 3 2 2
RayWhite 103 BRADLEY ST, GUYRA, NSW, 2365 1 1 $231,000 Incl GST

More

Local Schools


Bald Blair Public School

Guyra Central School

St Mary of the Angels Primary School

(While the above schools are located with the suburb of Guyra there may also be nearby schools whose catchments cover this suburb)

Local Crime Stats


Average Local Climate by month


(mm)
RAIN
Min (°C)
TEMP
Max (°C)
TEMP
Min (%)
HUMIDITY
Max (%)
HUMIDITY
(m/sec)
WIND
(MJ/sq m)
SOLAR
Jan3.117.730.837.686.63.125.0
Feb3.016.429.538.088.62.823.2
Mar3.115.628.636.688.32.718.4
Apr1.611.323.938.988.42.616.4
May1.37.119.542.291.82.312.8
Jun1.55.416.944.492.42.410.8
Jul1.63.415.939.692.52.412.2
Aug1.44.218.131.986.12.614.9
Sept1.87.420.436.988.32.818.3
Oct2.911.124.434.987.42.822.0
Nov2.813.927.832.281.63.026.0
Dec4.215.22744.691.42.824.6

source: Australian Government Bureau of Meteorology

Recently Sold

12-05-2022 $350,000 5 TENTERDEN ST GUYRA 2365
11-05-2022 $85,000 14 PEARSON ST GUYRA 2365
04-05-2022 $160,000 16 TENTERDEN ST GUYRA 2365
27-04-2022 $310,000 74 OLLERA ST GUYRA 2365
14-04-2022 $494,000 27 NINCOOLA ST GUYRA 2365
08-04-2022 $345,000 48 MANSE ST GUYRA 2365
01-04-2022 $399,000 37 CLARET ASH DR GUYRA 2365
01-04-2022 $76,000 252 BALDERSLEIGH RD GUYRA 2365
30-03-2022 $430,000 124 OLLERA ST GUYRA 2365
25-03-2022 $890,000 111 LLANGOTHLIN RD GUYRA 2365
24-03-2022 $345,000 111 MALPAS ST GUYRA 2365
24-03-2022 $370,000 19 O DONNELL AVE GUYRA 2365
23-03-2022 $80,000 18 CLARET ASH DR GUYRA 2365
23-03-2022 $315,000 159 BRADLEY ST GUYRA 2365
11-03-2022 $355,000 16 CLARET ASH DR GUYRA 2365
11-03-2022 $385,000 4 GUYRA RD GUYRA 2365
01-03-2022 $250,000 328 FLEETWOOD RD GUYRA 2365
01-03-2022 $960,000 34 ROBINSONS LANE GUYRA 2365
25-02-2022 $295,000 22 MANSE ST GUYRA 2365
22-02-2022 $305,000 49 RYANDA ST GUYRA 2365
21-02-2022 $197,000 35 PRISK ST GUYRA 2365
21-02-2022 $365,000 119 BALDERSLEIGH RD GUYRA 2365
16-02-2022 $415,000 46 ABERCROMBIE ST GUYRA 2365
11-02-2022 $15,000 77 OLLERA ST GUYRA 2365
04-02-2022 $230,000 3 LAGOON ST GUYRA 2365
21-01-2022 $350,000 45 CLARET ASH DR GUYRA 2365
20-01-2022 $205,000 46 PRISK ST GUYRA 2365
17-01-2022 $490,000 21 NINCOOLA ST GUYRA 2365
12-01-2022 $240,000 5 MALPAS ST GUYRA 2365
12-01-2022 $272,500 147 BRADLEY ST GUYRA 2365
11-01-2022 $220,000 8 ABERCROMBIE ST GUYRA 2365
10-01-2022 $140,000 11 NINCOOLA ST GUYRA 2365
10-01-2022 $140,000 11 NINCOOLA ST GUYRA 2365
10-01-2022 $140,000 11 NINCOOLA ST GUYRA 2365
10-01-2022 $140,000 11 NINCOOLA ST GUYRA 2365
10-01-2022 $140,000 11 NINCOOLA ST GUYRA 2365
23-12-2021 $225,000 1 O DONNELL AVE GUYRA 2365
22-12-2021 $140,000 8 WORRA ST GUYRA 2365
22-12-2021 $350,000 10 WIRRUNA ST GUYRA 2365
21-12-2021 $240,000 30 LOCHABER CRES GUYRA 2365
21-12-2021 $50,000 12 CLARET ASH DR GUYRA 2365
21-12-2021 $280,000 43 ABERCROMBIE ST GUYRA 2365
21-12-2021 $285,000 167 MALPAS ST GUYRA 2365
17-12-2021 $350,000 42 PRISK ST GUYRA 2365
16-12-2021 $300,000 47 ABERCROMBIE ST GUYRA 2365
10-12-2021 $280,000 11 O DONNELL AVE GUYRA 2365
09-12-2021 $240,000 8 O DONNELL AVE GUYRA 2365
06-12-2021 $257,000 31 MALPAS ST GUYRA 2365
03-12-2021 $320,000 6 WHITE GUM PL GUYRA 2365
02-12-2021 $255,000 1 / 32 CLARET ASH DR GUYRA 2365

Residz covers 12m+ Australian properties and brings together a wealth of data to give you a better understanding of an area. From crime and schools to bush fire, flood risk and more. Begin your search for properties for sale or learn more about where you currently reside. Residz is an exciting next-generation Real Estate platform getting better by the day!